Location: Newark
(34.9471°N, 136.1778°E)
Time: 14:27:43
(UTC+00:00)

XW-2F - Visible Passes

Search period start: 18 February 2020 00:00
Search period end: 28 February 2020 00:00
Orbit: 502 x 524 km, 97.5° (Epoch: 18 February)

Date Brightness Start Highest point End Pass type
(mag) Time Alt. Az. Time Alt. Az. Time Alt. Az.
18 Feb ? 20:21:36 10° NE 20:24:45 26° E 20:27:54 10° SSE visible
19 Feb ? 20:06:32 10° NE 20:08:56 16° E 20:11:20 10° SE visible
22 Feb ? 09:20:03 10° SW 09:21:53 13° W 09:23:45 10° WNW visible
22 Feb ? 20:52:06 10° NNE 20:55:50 70° ESE 20:59:35 10° S visible
23 Feb ? 20:36:30 10° NNE 20:40:05 41° E 20:43:39 10° S visible
24 Feb ? 20:21:08 10° NE 20:24:18 25° E 20:27:28 10° SSE visible
25 Feb ? 20:06:04 10° NE 20:08:28 16° E 20:10:52 10° SE visible
